Hourly Data Report for September 15, 2017

All times are specified in Local Standard Time (LST). Add 1 hour to adjust for Daylight Saving Time where and when it is observed.

ALERT CLIMATE
NUNAVUT

82°30'00.000" N
62°20'00.000" W
65.40 m
2400305
71355
ZLT

Download Data

Hourly Data (September 2017)
Hourly Data Report for September 15, 2017
Temp Definition
°C
Dew Point Temp Definition
°C
Rel Hum Definition
%
Wind Dir Definition
10's deg

Wind Spd Definition
km/h
Visibility Definition
km
Stn Press Definition
kPa
Hmdx Definition


Wind Chill Definition


Weather Definition


TIME
00:00 -10.3 -11.1 94 29 4   100.60   -13 LegendNANA
01:00 -10.4 -11.2 94 30 5   100.52   -13 LegendNANA
02:00 -10.3 -11.1 94 28 5   100.44   -13 LegendNANA
03:00 -10.4 -11.2 94   0   100.35     LegendNANA
04:00 -10.5 -11.5 93 6 3   100.28   -12 LegendNANA
05:00 -10.7 -11.6 93 0 1   100.20   -11 LegendNANA
06:00 -11.2 -12.1 93 0 1   100.12   -12 LegendNANA
07:00 -11.6 -12.6 92 20 3   100.00   -13 LegendNANA
08:00 -13.0 -14.1 92 29 6   99.89   -17 LegendNANA
09:00 -12.4 -13.7 89 28 5   99.77   -16 LegendNANA
10:00 -11.8 -13.9 84 23 2   99.70   -13 LegendNANA
11:00 -11.2 -13.1 86 28 2   99.63   -12 LegendNANA
12:00 -10.8 -13.4 81 29 5   99.54   -14 LegendNANA
13:00 -10.2 -13.6 76 23 7   99.46   -14 LegendNANA
14:00 -10.3 -14.0 74 20 6   99.38   -14 LegendNANA
15:00 -8.6 -12.1 76 23 12   99.33   -14 LegendNANA
16:00 -8.0 -11.3 77 22 7   99.32   -12 LegendNANA
17:00 -6.7 -10.3 75 23 27   99.25   -15 LegendNANA
18:00 -6.3 -9.7 77 24 34   99.21   -15 LegendNANA
19:00 -7.3 -10.3 79 26 40   99.18   -17 LegendNANA
20:00 -7.4 -10.8 76 24 42   99.08   -17 LegendNANA
21:00 -8.0 -11.1 78 26 40   99.10   -18 LegendNANA
22:00 -7.7 -11.0 78 26 42   99.04   -18 LegendNANA
23:00 -7.6 -11.2 75 25 39   99.01   -17 LegendNANA

Notes on Data Quality.

Legend

  • E = Estimated
  • M = Missing
  • NA = Not Available
  • ‡ = Partner data that is not subject to review by the National Climate Archives
Date modified: